Weather History for KNYC - March, 2014

Change the Weather History Date:

Saturday, March 8, 2014

  Actual Average Record
Temperature  
Mean Temperature 46 °F 40 °F  
Max Temperature 57 °F 47 °F 76 °F (1987)
Min Temperature 35 °F 33 °F 8 °F (1883)
Degree Days  
Heating Degree Days 19 25  
Month to date heating degree days 274 208  
Since 1 July heating degree days 3944 3730  
Cooling Degree Days 0 0  
Month to date cooling degree days 0 0  
Year to date cooling degree days 0 0  
Moisture  
Dew Point 27 °F    
Average Humidity 53    
Maximum Humidity 75    
Minimum Humidity 30    
Precipitation  
Precipitation 0.00 in 0.14 in 1.78 in (1941)
Month to date precipitation 0.04 1.03  
Year to date precipitation 8.31 7.77  
Snow  
Snow 0.00 in 0.20 in 15.70 in (1941)
Month to date snowfall 0.1 1.6  
Since 1 July snowfall 57.4 22.9  
Snow Depth 3.00 in    
Sea Level Pressure  
Sea Level Pressure 29.85 in    
Wind  
Wind Speed 6 mph (NW)    
Max Wind Speed 17 mph    
Max Gust Speed 27 mph    
Visibility 10 miles    
Events      
T = Trace of Precipitation, MM = Missing Value Source: NWS Daily Summary

Daily Weather History Graph

Daily Weather History Graph

Search for Another Location

Airport or City:

Trip Planner

Search our weather history database for the weather conditions in past years. The results will help you decide how hot, cold, wet, or windy it might be!

Date:

Astronomy

Mar. 08, 2014 Rise Set
Actual Time 6:18 AM EST 5:54 PM EST
Civil Twilight 5:51 AM EST 6:22 PM EST
Nautical Twilight 5:19 AM EST 6:54 PM EST
Astronomical Twilight 4:48 AM EST 7:26 PM EST
Moon 10:55 AM EST (3/8) 12:52 AM EST (3/8)
Length of Visible Light 12h 30m
Length of Day
11h 36m
First Quarter, 51% of the Moon is Illuminated
Mar 8
First Quarter
Mar 16
Full
Mar 23
Last Quarter
Mar 30
New
Apr 7
First Quarter

Hourly Weather History & Observations

Time (EST) Temp. Windchill Dew Point Humidity Pressure Visibility Wind Dir Wind Speed Gust Speed Precip Events Conditions
12:51 AM 37.0 °F 33.3 °F 27.0 °F 67% 29.90 in 10.0 mi NNE 4.6 mph - N/A   Overcast
1:51 AM 36.0 °F 31.1 °F 25.0 °F 64% 29.88 in 10.0 mi North 5.8 mph - N/A   Overcast
2:27 AM 37.0 °F 33.3 °F 26.1 °F 65% 29.90 in 10.0 mi Variable 4.6 mph - N/A   Overcast
2:51 AM 37.0 °F 31.6 °F 27.0 °F 67% 29.86 in 10.0 mi NNW 6.9 mph - N/A   Mostly Cloudy
3:19 AM 36.0 °F - 27.0 °F 70% 29.88 in 10.0 mi Calm Calm - N/A   Mostly Cloudy
3:32 AM 36.0 °F - 27.0 °F 70% 29.87 in 10.0 mi Calm Calm - N/A   Scattered Clouds
3:51 AM 35.1 °F 32.2 °F 27.0 °F 72% 29.86 in 10.0 mi NW 3.5 mph - N/A   Partly Cloudy
4:51 AM 36.0 °F - 28.0 °F 73% 29.86 in 10.0 mi Calm Calm - N/A   Clear
5:51 AM 35.1 °F 32.2 °F 28.0 °F 76% 29.86 in 10.0 mi Variable 3.5 mph - N/A   Partly Cloudy
6:51 AM 36.0 °F 32.1 °F 28.9 °F 76% 29.86 in 10.0 mi WNW 4.6 mph - N/A   Clear
7:51 AM 37.0 °F 32.4 °F 27.0 °F 67% 29.87 in 10.0 mi WNW 5.8 mph - N/A   Clear
8:51 AM 39.9 °F 36.7 °F 28.0 °F 63% 29.87 in 10.0 mi WNW 4.6 mph - N/A   Clear
9:51 AM 42.1 °F 38.4 °F 27.0 °F 55% 29.86 in 10.0 mi West 5.8 mph - N/A   Clear
10:51 AM 46.9 °F - 27.0 °F 46% 29.85 in 10.0 mi Variable 4.6 mph - N/A   Clear
11:51 AM 51.1 °F - 28.0 °F 41% 29.83 in 10.0 mi West 4.6 mph - N/A   Partly Cloudy
12:51 PM 54.0 °F - 27.0 °F 35% 29.80 in 10.0 mi West 12.7 mph - N/A   Scattered Clouds
1:51 PM 55.0 °F - 26.1 °F 33% 29.78 in 10.0 mi Variable 6.9 mph 19.6 mph N/A   Overcast
2:51 PM 55.9 °F - 26.1 °F 32% 29.77 in 10.0 mi WNW 6.9 mph 19.6 mph N/A   Clear
3:51 PM 55.0 °F - 25.0 °F 31% 29.78 in 10.0 mi NW 10.4 mph 23.0 mph N/A   Clear
4:51 PM 54.0 °F - 25.0 °F 33% 29.80 in 10.0 mi NW 8.1 mph - N/A   Overcast
5:51 PM 52.0 °F - 26.1 °F 37% 29.83 in 10.0 mi Variable 6.9 mph - N/A   Overcast
6:51 PM 51.1 °F - 27.0 °F 39% 29.85 in 10.0 mi WNW 5.8 mph - N/A   Overcast
7:51 PM 48.9 °F - 26.1 °F 41% 29.86 in 10.0 mi WNW 5.8 mph - N/A   Overcast
8:51 PM 48.0 °F - 27.0 °F 44% 29.88 in 10.0 mi WNW 6.9 mph - N/A   Mostly Cloudy
9:51 PM 46.9 °F - 27.0 °F 46% 29.89 in 10.0 mi NW 9.2 mph - N/A   Overcast
10:51 PM 45.0 °F 41.2 °F 26.1 °F 48% 29.90 in 10.0 mi NW 6.9 mph - N/A   Overcast
11:51 PM 43.0 °F - 26.1 °F 51% 29.89 in 7.0 mi Calm Calm - N/A   Overcast